Simultaneous Nadir Overpasses (SNOs) Predictions

Prediction of SNOs between AQUA and NOAA-19 Satellite Orbit:

Table of predicted SNOs for the next 14.0 days since TLE Epoch: 9/1/2017
Index Date (AQUA) Time (AQUA) Lat,Lon (AQUA) SZA (AQUA ) Date (NOAA-19) Time (NOAA-19) Lat,Lon (NOAA-19) SZA (NOAA-19 ) Distance(km) Time Diff (sec)
1 09/01/2017 20:11:25 -80.93, 16.95 104.89 09/01/2017 20:11:05 -80.94, 16.78 104.86 3.15 20
2 09/01/2017 21:00:53 80.96,-175.75 75.18 09/01/2017 21:02:02 80.94,-175.71 75.13 1.86 69
3 09/04/2017 01:45:10 80.94, 113.41 75.92 09/04/2017 01:44:48 80.94, 113.37 75.94 0.78 22
4 09/04/2017 02:34:28 -80.72, -76.20 104.52 09/04/2017 02:35:42 -80.94, -75.53 104.44 27.47 74
5 09/06/2017 07:18:54 -80.95,-150.14 103.26 09/06/2017 07:18:38 -80.94,-150.05 103.27 1.94 16
6 09/06/2017 08:08:21 80.95, 17.50 76.76 09/06/2017 08:09:34 80.94, 17.47 76.72 0.87 73
7 09/08/2017 12:52:38 80.94, -53.41 77.53 09/08/2017 12:52:20 80.94, -53.51 77.55 1.77 18
8 09/10/2017 18:26:21 -80.95, 42.98 101.63 09/10/2017 18:26:10 -80.94, 42.96 101.63 1.22 11
9 09/13/2017 00:00:05 80.94, 139.63 79.19 09/12/2017 23:59:51 80.94, 139.52 79.20 1.98 14




NCC Satellite Simultaneous Nadir Overpasses (SNOs) Prediction Service
